Weather History for Morgantown, WV

Change the Weather History Date:

Thursday, December 7, 2006

  Actual Average Record
Temperature  
Mean Temperature 30 °F 37 °F  
Max Temperature 42 °F 45 °F 76 °F (1951)
Min Temperature 19 °F 29 °F 5 °F (1977)
Degree Days  
Heating Degree Days 34 28  
Month to date heating degree days 189  
Since 1 July heating degree days 1237  
Cooling Degree Days 0 0  
Month to date cooling degree days 0  
Year to date cooling degree days 814  
Moisture  
Dew Point 18 °F    
Average Humidity 64    
Maximum Humidity 86    
Minimum Humidity 45    
Precipitation  
Precipitation 0.00 in 0.10 in 1.11 in (2011)
Month to date precipitation 0.72  
Year to date precipitation 39.64  
Sea Level Pressure  
Sea Level Pressure 30.17 in    
Wind  
Wind Speed 9 mph (WNW)    
Max Wind Speed 14 mph    
Max Gust Speed 25 mph    
Visibility 6 miles    
Events Snow    
T = Trace of Precipitation, MM = Missing Value Source: NWS Daily Summary

Daily Weather History Graph

Daily Weather History Graph

Search for Another Location

Airport:

Trip Planner

Search our weather history database for the weather conditions in past years. The results will help you decide how hot, cold, wet, or windy it might be!

Date:

Astronomy

Dec. 07, 2006 Rise Set
Actual Time 7:26 AM EST 4:55 PM EST
Civil Twilight 6:56 AM EST 5:25 PM EST
Nautical Twilight 6:23 AM EST 5:59 PM EST
Astronomical Twilight 5:50 AM EST 6:31 PM EST
Moon 7:26 PM EST (12/7) 10:15 AM EST (12/7)
Length of Visible Light 10h 28m
Length of Day
9h 28m
Waning Gibbous, 91% of the Moon is Illuminated
Dec 7
Waning Gibbous
Dec 12
Last Quarter
Dec 20
New
Dec 27
First Quarter
Jan 3
Full

Hourly Weather History & Observations

Time (EST) Temp. Windchill Dew Point Humidity Pressure Visibility Wind Dir Wind Speed Gust Speed Precip Events Conditions
12:53 AM 42.1 °F 36.1 °F 30.9 °F 65% 30.00 in 10.0 mi SW 10.4 mph - N/A   Mostly Cloudy
1:53 AM 42.1 °F 36.1 °F 30.9 °F 65% 29.99 in 10.0 mi SW 10.4 mph - N/A   Overcast
2:53 AM 42.1 °F 37.1 °F 30.9 °F 65% 29.98 in 10.0 mi SW 8.1 mph - N/A   Overcast
3:53 AM 42.1 °F 37.1 °F 30.0 °F 62% 29.98 in 10.0 mi SW 8.1 mph - N/A   Overcast
4:53 AM 42.1 °F 38.4 °F 30.0 °F 62% 29.97 in 10.0 mi WSW 5.8 mph - N/A   Overcast
5:53 AM 42.1 °F 37.7 °F 27.0 °F 55% 29.97 in 10.0 mi West 6.9 mph - N/A   Overcast
7:53 AM 35.1 °F 26.9 °F 21.9 °F 59% 30.06 in 10.0 mi WNW 11.5 mph - N/A   Overcast
8:11 AM 33.8 °F 26.4 °F 19.4 °F 56% 30.05 in 10.0 mi West 9.2 mph - N/A   Overcast
8:53 AM 33.1 °F 27.7 °F 18.0 °F 54% 30.10 in 10.0 mi Variable 5.8 mph - N/A   Overcast
10:53 AM 32.0 °F 24.2 °F 17.1 °F 54% 30.13 in 10.0 mi West 9.2 mph - N/A   Overcast
11:53 AM 30.9 °F 22.2 °F 18.0 °F 59% 30.14 in 10.0 mi West 10.4 mph 17.3 mph N/A   Overcast
12:29 PM 30.2 °F 24.3 °F 19.4 °F 64% 30.11 in 10.0 mi Variable 5.8 mph - N/A   Overcast
12:53 PM 30.0 °F 24.1 °F 19.9 °F 66% 30.14 in 2.5 mi Variable 5.8 mph - 0.00 in Snow Light Snow
1:02 PM 30.2 °F 21.9 °F 21.2 °F 69% 30.11 in 3.0 mi WNW 9.2 mph - 0.00 in Snow Light Snow
1:23 PM 30.2 °F 21.3 °F 21.2 °F 69% 30.10 in 10.0 mi West 10.4 mph - 0.00 in   Overcast
1:30 PM 30.2 °F 23.4 °F 21.2 °F 69% 30.11 in 8.0 mi Variable 6.9 mph - 0.00 in   Overcast
1:35 PM 30.2 °F 20.2 °F 21.2 °F 69% 30.12 in 0.8 mi NNW 12.7 mph 24.2 mph 0.00 in Snow Light Snow
1:39 PM 26.6 °F 17.5 °F 21.2 °F 80% 30.12 in 0.2 mi NW 9.2 mph 24.2 mph 0.00 in Snow Heavy Snow
1:48 PM 26.6 °F 16.8 °F 21.2 °F 80% 30.12 in 0.5 mi NW 10.4 mph 20.7 mph 0.00 in Snow Snow
1:53 PM 28.0 °F 19.3 °F 19.9 °F 72% 30.16 in 2.0 mi NW 9.2 mph 20.7 mph 0.00 in Snow Light Snow
2:00 PM 28.4 °F 21.2 °F 19.4 °F 69% 30.13 in 3.0 mi NW 6.9 mph 17.3 mph 0.00 in Snow Light Snow
2:08 PM 28.4 °F 19.1 °F 19.4 °F 69% 30.13 in 2.5 mi NW 10.4 mph 19.6 mph 0.00 in Snow Light Snow
2:12 PM 28.4 °F 19.7 °F 19.4 °F 69% 30.13 in 3.0 mi NW 9.2 mph 19.6 mph 0.00 in Snow Light Snow
2:26 PM 28.4 °F 21.2 °F 19.4 °F 69% 30.14 in 2.5 mi NW 6.9 mph - 0.00 in Snow Light Snow
2:36 PM 26.6 °F 18.2 °F 19.4 °F 74% 30.15 in 0.8 mi NW 8.1 mph - 0.00 in Snow Light Snow
2:45 PM 26.6 °F 16.8 °F 19.4 °F 74% 30.15 in 2.5 mi WNW 10.4 mph 16.1 mph 0.01 in Snow Light Snow
3:53 PM 27.0 °F 16.7 °F 12.0 °F 53% 30.22 in 10.0 mi WNW 11.5 mph 21.9 mph N/A   Overcast
4:53 PM 25.0 °F 14.8 °F 6.1 °F 45% 30.27 in 10.0 mi NW 10.4 mph 21.9 mph N/A   Mostly Cloudy
5:53 PM 23.0 °F 10.6 °F 10.9 °F 60% 30.32 in 2.5 mi NW 13.8 mph 23.0 mph 0.00 in Snow Light Snow
5:57 PM 21.2 °F 8.3 °F 12.2 °F 68% 30.29 in 1.0 mi NW 13.8 mph 25.3 mph 0.00 in Snow Light Snow
6:01 PM 19.4 °F 7.9 °F 14.0 °F 80% 30.29 in 0.5 mi NNW 10.4 mph 25.3 mph 0.00 in Snow Snow
6:09 PM 19.4 °F 10.4 °F 15.8 °F 86% 30.29 in 3.0 mi NW 6.9 mph 17.3 mph 0.00 in Snow Light Snow
6:53 PM 21.0 °F 10.6 °F 7.0 °F 55% 30.36 in 10.0 mi NNW 9.2 mph 21.9 mph 0.00 in   Overcast
7:53 PM 19.9 °F 9.3 °F 5.0 °F 52% 30.40 in 10.0 mi NW 9.2 mph - N/A   Partly Cloudy
8:53 PM 19.0 °F 11.1 °F 3.9 °F 52% 30.40 in 10.0 mi Variable 5.8 mph - N/A   Clear
9:53 PM 19.0 °F 11.1 °F 3.9 °F 52% 30.41 in 10.0 mi Variable 5.8 mph - N/A   Clear
10:53 PM 19.0 °F 10.0 °F 3.0 °F 50% 30.40 in 10.0 mi West 6.9 mph - N/A   Clear
11:53 PM 19.0 °F 9.0 °F 3.0 °F 50% 30.41 in 10.0 mi West 8.1 mph - N/A   Clear